Wainwright, AK

2:03 PM AKST on February 20, 2017 (GMT -0900)
Wiley Post-Will Rogers Memorial

Weather History for PABR - August, 2012

Change the Weather History Date:

Sunday, August 12, 2012

  Actual Average Record
Temperature  
Mean Temperature 42 °F 40 °F  
Max Temperature 53 °F 45 °F 70 °F (1979)
Min Temperature 31 °F 35 °F 24 °F (1969)
Degree Days  
Heating Degree Days 23 25  
Month to date heating degree days 284 300  
Since 1 June heating degree days 1754 1927  
Since 1 July heating degree days 929 1047  
Cooling Degree Days 0    
Month to date cooling degree days 0  
Year to date cooling degree days 0  
Since 1 June cooling degree days 0  
Moisture  
Dew Point 37 °F    
Average Humidity 0    
Maximum Humidity 0    
Minimum Humidity 0    
Precipitation  
Precipitation 0.00 in 0.03 in 0.40 in (1924)
Month to date precipitation 0.30 0.41  
Year to date precipitation 2.02 2.41  
Snow  
Snow 0.00 in 0.00 in 0.80 in (1992)
Month to date snowfall T 0.2  
Since 1 June snowfall 0.3 1.1  
Since 1 July snowfall 0.2 0.4  
Snow Depth 0.00 in    
Sea Level Pressure  
Sea Level Pressure 30.16 in    
Wind  
Wind Speed 6 mph (SE)    
Max Wind Speed 13 mph    
Max Gust Speed 15 mph    
Visibility 6 miles    
Events Fog    
T = Trace of Precipitation, MM = Missing Value Source: NWS Daily Summary

Daily Weather History Graph

Daily Weather History Graph

Search for Another Location

Airport or City:

Trip Planner

Search our weather history database for the weather conditions in past years. The results will help you decide how hot, cold, wet, or windy it might be!

Date:

Astronomy

Aug. 12, 2012 Rise Set
Actual Time 4:50 AM AKDT 12:08 AM AKDT
Civil Twilight Sun does not rise Sun does not rise
Nautical Twilight Sun does not rise Sun does not rise
Astronomical Twilight Sun does not rise Sun does not rise
Moon No Moon Rise No Moon Set
Length of Visible Light 24h 00m
Length of Day
19h 18m
Waning Crescent, 23% of the Moon is Illuminated
Aug 12
Waning Crescent
Aug 17
New
Aug 24
First Quarter
Aug 31
Full
Sep 8
Last Quarter

Hourly Weather History & Observations

Time (AKDT) Temp. Windchill Dew Point Humidity Pressure Visibility Wind Dir Wind Speed Gust Speed Precip Events Conditions
12:53 AM 34.0 °F - 33.1 °F 96% 30.22 in 10.0 mi Calm Calm - N/A Fog Patches of Fog
1:53 AM 35.1 °F - 33.1 °F 92% 30.22 in 10.0 mi Calm Calm - N/A Fog Patches of Fog
2:53 AM 36.0 °F - 35.1 °F 97% 30.22 in 10.0 mi Calm Calm - N/A Fog Patches of Fog
3:53 AM 33.1 °F - 33.1 °F 100% 30.21 in 10.0 mi Calm Calm - N/A Fog Patches of Fog
4:42 AM 33.8 °F 30.8 °F 32.0 °F 93% 30.20 in 0.5 mi SE 3.5 mph - N/A Fog Fog
4:53 AM 30.9 °F 27.5 °F 30.9 °F 100% 30.20 in 0.5 mi SE 3.5 mph - N/A Fog Light Freezing Fog
5:10 AM 33.8 °F - 32.0 °F 93% 30.20 in 1.0 mi Calm Calm - N/A   Scattered Clouds
5:19 AM 33.8 °F - 33.8 °F 100% 30.20 in 0.5 mi Calm Calm - N/A Fog Fog
5:50 AM 33.8 °F 30.8 °F 33.8 °F 100% 30.20 in 1.0 mi South 3.5 mph - N/A   Mostly Cloudy
5:53 AM 33.1 °F - 32.0 °F 96% 30.20 in 1.0 mi Calm Calm - N/A   Mostly Cloudy
6:30 AM 32.0 °F 26.4 °F 30.2 °F 93% 30.19 in 3.0 mi South 5.8 mph - N/A   Mostly Cloudy
6:53 AM 35.1 °F 30.1 °F 34.0 °F 96% 30.19 in 10.0 mi South 5.8 mph - N/A Fog Patches of Fog
7:04 AM 35.6 °F 30.7 °F 35.6 °F 100% 30.18 in 1.2 mi South 5.8 mph - N/A Fog Patches of Fog
7:11 AM 35.6 °F 29.9 °F 35.6 °F 100% 30.18 in 0.5 mi South 6.9 mph - N/A Fog Fog
7:21 AM 37.4 °F 33.8 °F 35.6 °F 93% 30.18 in 0.5 mi South 4.6 mph - N/A Fog Fog
7:48 AM 37.4 °F - 37.4 °F 100% 30.18 in 2.0 mi Calm Calm - N/A   Mostly Cloudy
7:53 AM 37.9 °F - 37.0 °F 97% 30.18 in 5.0 mi Calm Calm - N/A   Mostly Cloudy
8:00 AM 37.4 °F 34.9 °F 37.4 °F 100% 30.18 in 2.5 mi SE 3.5 mph - N/A   Mostly Cloudy
8:08 AM 39.2 °F 35.9 °F 37.4 °F 93% 30.18 in 1.0 mi South 4.6 mph - N/A   Mostly Cloudy
8:15 AM 39.2 °F 35.9 °F 39.2 °F 100% 30.18 in 7.0 mi South 4.6 mph - N/A Fog Patches of Fog
8:53 AM 41.0 °F 39.0 °F 41.0 °F 100% 30.17 in 7.0 mi South 3.5 mph - N/A Fog Patches of Fog
9:53 AM 44.1 °F 40.1 °F 39.0 °F 82% 30.17 in 10.0 mi SSW 6.9 mph - N/A   Partly Cloudy
10:53 AM 48.0 °F - 39.0 °F 71% 30.17 in 10.0 mi Calm Calm - N/A   Scattered Clouds
11:53 AM 48.9 °F - 41.0 °F 74% 30.17 in 10.0 mi NNW 3.5 mph - N/A   Scattered Clouds
12:53 PM 48.9 °F - 41.0 °F 74% 30.17 in 10.0 mi NNE 5.8 mph - N/A   Mostly Cloudy
1:53 PM 51.1 °F - 39.9 °F 66% 30.15 in 10.0 mi ENE 4.6 mph - N/A   Scattered Clouds
2:53 PM 52.0 °F - 42.1 °F 69% 30.14 in 10.0 mi ENE 9.2 mph - N/A   Mostly Cloudy
3:53 PM 50.0 °F - 42.1 °F 74% 30.13 in 10.0 mi East 11.5 mph - N/A   Scattered Clouds
4:53 PM 48.9 °F - 39.9 °F 71% 30.12 in 10.0 mi East 11.5 mph - N/A   Scattered Clouds
5:53 PM 50.0 °F - 42.1 °F 74% 30.11 in 10.0 mi East 10.4 mph - N/A   Scattered Clouds
6:53 PM 51.1 °F - 44.1 °F 77% 30.10 in 10.0 mi East 10.4 mph - N/A   Scattered Clouds
7:53 PM 51.1 °F - 44.1 °F 77% 30.08 in 10.0 mi East 11.5 mph - N/A   Scattered Clouds
8:53 PM 48.9 °F - 42.1 °F 77% 30.08 in 10.0 mi East 10.4 mph - N/A   Clear
9:53 PM 48.9 °F - 42.1 °F 77% 30.08 in 10.0 mi ESE 6.9 mph - N/A   Clear
10:53 PM 46.0 °F 42.5 °F 39.9 °F 79% 30.08 in 10.0 mi East 6.9 mph - N/A   Scattered Clouds
11:53 PM 41.0 °F 35.8 °F 39.0 °F 93% 30.07 in 10.0 mi ESE 8.1 mph - N/A   Scattered Clouds